Time,TemperatureF,DewpointF,PressureIn,WindDirection,WindDirectionDegrees,WindSpeedMPH,WindSpeedGustMPH,Humidity,HourlyPrecipIn,Conditions,Clouds,dailyrainin,SoftwareType,DateUTC
2013-03-12 00:00:00,36.2,34.1,30.22,NE,41,7.0,10.0,92,0.00,,---,0.00,VWS V14.01,2013-03-12 07:00:00,
2013-03-12 00:04:00,36.9,34.5,30.22,NE,38,3.0,10.0,91,0.00,,---,0.00,VWS V14.01,2013-03-12 07:04:00,
2013-03-12 00:09:00,37.0,34.3,30.22,NE,34,0.0,10.0,90,0.00,,---,0.00,VWS V14.01,2013-03-12 07:09:00,
2013-03-12 00:14:00,37.3,34.6,30.22,NE,51,5.0,10.0,90,0.00,,---,0.00,VWS V14.01,2013-03-12 07:14:00,
2013-03-12 00:15:00,37.4,34.7,30.22,ENE,60,5.0,10.0,90,0.00,,---,0.00,VWS V14.01,2013-03-12 07:15:00,
2013-03-12 00:19:00,37.6,34.9,30.22,ENE,68,4.0,6.0,90,0.00,,---,0.00,VWS V14.01,2013-03-12 07:19:00,
2013-03-12 00:24:00,37.5,34.8,30.22,NE,49,4.0,6.0,90,0.00,,---,0.00,VWS V14.01,2013-03-12 07:24:00,
2013-03-12 00:29:00,37.4,34.5,30.21,NNE,30,5.0,6.0,89,0.00,,---,0.00,VWS V14.01,2013-03-12 07:29:00,
2013-03-12 00:30:00,37.4,34.5,30.21,NNE,19,6.0,8.0,89,0.00,,---,0.00,VWS V14.01,2013-03-12 07:30:00,
2013-03-12 00:34:00,37.5,34.6,30.21,NNE,32,4.0,7.0,89,0.00,,---,0.00,VWS V14.01,2013-03-12 07:34:00,
2013-03-12 00:39:00,37.5,34.8,30.21,NNE,32,1.0,7.0,90,0.00,,---,0.00,VWS V14.01,2013-03-12 07:39:00,
2013-03-12 00:44:00,36.4,32.9,30.21,NNE,32,1.0,7.0,87,0.00,,---,0.00,VWS V14.01,2013-03-12 07:44:00,
2013-03-12 00:45:00,36.3,32.8,30.21,NNE,32,1.0,7.0,87,0.00,,---,0.00,VWS V14.01,2013-03-12 07:45:00,
2013-03-12 00:49:00,35.5,32.3,30.21,NNE,32,0.0,1.0,88,0.00,,---,0.00,VWS V14.01,2013-03-12 07:49:00,
2013-03-12 00:54:00,34.8,31.9,30.21,NNE,32,0.0,1.0,89,0.00,,---,0.00,VWS V14.01,2013-03-12 07:54:00,
2013-03-12 00:59:00,34.3,31.7,30.21,NNE,32,0.0,1.0,90,0.00,,---,0.00,VWS V14.01,2013-03-12 07:59:00,
2013-03-12 01:00:00,34.2,31.6,30.21,NNE,32,0.0,1.0,90,0.00,,---,0.00,VWS V14.01,2013-03-12 08:00:00,
2013-03-12 01:04:00,33.8,31.2,30.22,NNE,32,0.0,0.0,90,0.00,,---,0.00,VWS V14.01,2013-03-12 08:04:00,
2013-03-12 01:09:00,33.8,31.7,30.21,NNE,32,0.0,0.0,92,0.00,,---,0.00,VWS V14.01,2013-03-12 08:09:00,
2013-03-12 01:14:00,33.8,31.7,30.21,NNE,32,0.0,0.0,92,0.00,,---,0.00,VWS V14.01,2013-03-12 08:14:00,
2013-03-12 01:15:00,33.7,31.6,30.21,NNE,32,0.0,0.0,92,0.00,,---,0.00,VWS V14.01,2013-03-12 08:15:00,
2013-03-12 01:19:00,33.9,31.8,30.22,NNE,32,0.0,0.0,92,0.00,,---,0.00,VWS V14.01,2013-03-12 08:19:00,
2013-03-12 01:24:00,34.4,32.6,30.22,NNE,32,0.0,0.0,93,0.00,,---,0.00,VWS V14.01,2013-03-12 08:24:00,
2013-03-12 01:29:00,34.5,32.7,30.22,NNE,32,0.0,0.0,93,0.00,,---,0.00,VWS V14.01,2013-03-12 08:29:00,
2013-03-12 01:30:00,34.5,32.7,30.22,NNE,32,0.0,0.0,93,0.00,,---,0.00,VWS V14.01,2013-03-12 08:30:00,
2013-03-12 01:34:00,34.6,32.8,30.21,NNE,32,0.0,0.0,93,0.00,,---,0.00,VWS V14.01,2013-03-12 08:34:00,
2013-03-12 01:39:00,34.8,33.0,30.21,NNE,32,0.0,0.0,93,0.00,,---,0.00,VWS V14.01,2013-03-12 08:39:00,
2013-03-12 01:44:00,35.1,33.3,30.21,NNE,32,0.0,0.0,93,0.00,,---,0.00,VWS V14.01,2013-03-12 08:44:00,
2013-03-12 01:45:00,35.2,33.4,30.21,NNE,32,0.0,0.0,93,0.00,,---,0.00,VWS V14.01,2013-03-12 08:45:00,
2013-03-12 01:49:00,35.0,33.2,30.20,NNE,32,0.0,0.0,93,0.00,,---,0.00,VWS V14.01,2013-03-12 08:49:00,
2013-03-12 01:54:00,34.5,32.4,30.20,NNE,32,0.0,0.0,92,0.00,,---,0.00,VWS V14.01,2013-03-12 08:54:00,
2013-03-12 01:59:00,34.4,32.3,30.20,NNE,32,0.0,0.0,92,0.00,,---,0.00,VWS V14.01,2013-03-12 08:59:00,
2013-03-12 02:00:00,34.4,32.3,30.20,NNE,32,0.0,0.0,92,0.00,,---,0.00,VWS V14.01,2013-03-12 09:00:00,
2013-03-12 02:04:00,34.1,32.0,30.20,NNE,32,0.0,0.0,92,0.00,,---,0.00,VWS V14.01,2013-03-12 09:04:00,
2013-03-12 02:09:00,33.8,31.7,30.20,NNE,32,0.0,0.0,92,0.00,,---,0.00,VWS V14.01,2013-03-12 09:09:00,
2013-03-12 02:14:00,33.9,32.1,30.20,NNE,32,0.0,0.0,93,0.00,,---,0.00,VWS V14.01,2013-03-12 09:14:00,
2013-03-12 02:15:00,33.9,32.1,30.20,NNE,32,0.0,0.0,93,0.00,,---,0.00,VWS V14.01,2013-03-12 09:15:00,
2013-03-12 02:19:00,33.9,32.1,30.20,NNE,32,0.0,0.0,93,0.00,,---,0.00,VWS V14.01,2013-03-12 09:19:00,
2013-03-12 02:24:00,34.4,32.6,30.20,NNE,32,0.0,0.0,93,0.00,,---,0.00,VWS V14.01,2013-03-12 09:24:00,
2013-03-12 02:29:00,34.6,32.8,30.20,NNE,32,0.0,0.0,93,0.00,,---,0.00,VWS V14.01,2013-03-12 09:29:00,
2013-03-12 02:30:00,34.7,32.9,30.20,NNE,32,0.0,0.0,93,0.00,,---,0.00,VWS V14.01,2013-03-12 09:30:00,
2013-03-12 02:34:00,34.7,32.9,30.20,NNE,32,0.0,0.0,93,0.00,,---,0.00,VWS V14.01,2013-03-12 09:34:00,
2013-03-12 02:39:00,34.4,32.6,30.19,NNE,32,0.0,0.0,93,0.00,,---,0.00,VWS V14.01,2013-03-12 09:39:00,
2013-03-12 02:44:00,34.4,32.6,30.19,NNE,32,0.0,0.0,93,0.00,,---,0.00,VWS V14.01,2013-03-12 09:44:00,
2013-03-12 02:45:00,34.4,32.6,30.19,NNE,32,0.0,0.0,93,0.00,,---,0.00,VWS V14.01,2013-03-12 09:45:00,
2013-03-12 02:49:00,34.0,31.9,30.19,NNE,32,0.0,0.0,92,0.00,,---,0.00,VWS V14.01,2013-03-12 09:49:00,
2013-03-12 02:54:00,33.5,31.4,30.19,NNE,32,0.0,0.0,92,0.00,,---,0.00,VWS V14.01,2013-03-12 09:54:00,
2013-03-12 02:59:00,33.5,31.7,30.19,NNE,32,0.0,0.0,93,0.00,,---,0.00,VWS V14.01,2013-03-12 09:59:00,
2013-03-12 03:00:00,33.5,31.7,30.19,NNE,32,0.0,0.0,93,0.00,,---,0.00,VWS V14.01,2013-03-12 10:00:00,
2013-03-12 03:04:00,33.3,31.2,30.19,NNE,32,0.0,0.0,92,0.00,,---,0.00,VWS V14.01,2013-03-12 10:04:00,
2013-03-12 03:09:00,33.0,31.2,30.19,NNE,32,0.0,0.0,93,0.00,,---,0.00,VWS V14.01,2013-03-12 10:09:00,
2013-03-12 03:14:00,32.9,31.1,30.18,NNE,32,0.0,0.0,93,0.00,,---,0.00,VWS V14.01,2013-03-12 10:14:00,
2013-03-12 03:15:00,32.9,31.1,30.18,NNE,32,0.0,0.0,93,0.00,,---,0.00,VWS V14.01,2013-03-12 10:15:00,
2013-03-12 03:19:00,33.0,31.2,30.18,NNE,32,0.0,0.0,93,0.00,,---,0.00,VWS V14.01,2013-03-12 10:19:00,
2013-03-12 03:24:00,33.0,31.2,30.18,NNE,32,0.0,0.0,93,0.00,,---,0.00,VWS V14.01,2013-03-12 10:24:00,
2013-03-12 03:29:00,33.0,31.2,30.18,NNE,32,0.0,0.0,93,0.00,,---,0.00,VWS V14.01,2013-03-12 10:29:00,
2013-03-12 03:30:00,33.0,31.2,30.18,NNE,32,0.0,0.0,93,0.00,,---,0.00,VWS V14.01,2013-03-12 10:30:00,
2013-03-12 03:34:00,32.8,31.0,30.18,NNE,32,0.0,0.0,93,0.00,,---,0.00,VWS V14.01,2013-03-12 10:34:00,
2013-03-12 03:39:00,32.8,31.0,30.18,NNE,32,0.0,0.0,93,0.00,,---,0.00,VWS V14.01,2013-03-12 10:39:00,
2013-03-12 03:44:00,33.0,31.5,30.18,NNE,32,0.0,0.0,94,0.00,,---,0.00,VWS V14.01,2013-03-12 10:44:00,
2013-03-12 03:45:00,33.0,31.5,30.18,NNE,32,0.0,0.0,94,0.00,,---,0.00,VWS V14.01,2013-03-12 10:45:00,
2013-03-12 03:49:00,32.9,31.1,30.18,NNE,32,0.0,0.0,93,0.00,,---,0.00,VWS V14.01,2013-03-12 10:49:00,
2013-03-12 03:54:00,33.0,31.5,30.18,NNE,32,0.0,0.0,94,0.00,,---,0.00,VWS V14.01,2013-03-12 10:54:00,
2013-03-12 03:59:00,33.0,31.5,30.18,NNE,32,0.0,0.0,94,0.00,,---,0.00,VWS V14.01,2013-03-12 10:59:00,
2013-03-12 04:00:00,32.9,31.4,30.18,NNE,32,0.0,0.0,94,0.00,,---,0.00,VWS V14.01,2013-03-12 11:00:00,
2013-03-12 04:04:00,32.9,31.4,30.18,NNE,32,0.0,0.0,94,0.00,,---,0.00,VWS V14.01,2013-03-12 11:04:00,
2013-03-12 04:09:00,33.0,31.5,30.18,NNE,32,0.0,0.0,94,0.00,,---,0.00,VWS V14.01,2013-03-12 11:09:00,
2013-03-12 04:14:00,33.0,31.5,30.17,NNE,32,0.0,0.0,94,0.00,,---,0.00,VWS V14.01,2013-03-12 11:14:00,
2013-03-12 04:15:00,33.0,31.5,30.17,NNE,32,0.0,0.0,94,0.00,,---,0.00,VWS V14.01,2013-03-12 11:15:00,
2013-03-12 04:19:00,32.9,31.4,30.17,NNE,32,0.0,0.0,94,0.00,,---,0.00,VWS V14.01,2013-03-12 11:19:00,
2013-03-12 04:24:00,33.1,31.6,30.17,NNE,32,0.0,0.0,94,0.00,,---,0.00,VWS V14.01,2013-03-12 11:24:00,
2013-03-12 04:29:00,33.4,31.9,30.17,NNE,32,0.0,0.0,94,0.00,,---,0.00,VWS V14.01,2013-03-12 11:29:00,
2013-03-12 04:30:00,33.5,32.0,30.17,NNE,32,0.0,0.0,94,0.00,,---,0.00,VWS V14.01,2013-03-12 11:30:00,
2013-03-12 04:34:00,33.8,32.3,30.17,NNE,32,0.0,0.0,94,0.00,,---,0.00,VWS V14.01,2013-03-12 11:34:00,
2013-03-12 04:39:00,33.4,31.9,30.18,NNE,32,0.0,0.0,94,0.00,,---,0.00,VWS V14.01,2013-03-12 11:39:00,
2013-03-12 04:44:00,32.5,31.0,30.18,NNE,32,0.0,0.0,94,0.00,,---,0.00,VWS V14.01,2013-03-12 11:44:00,
2013-03-12 04:45:00,32.3,30.8,30.18,NNE,32,0.0,0.0,94,0.00,,---,0.00,VWS V14.01,2013-03-12 11:45:00,
2013-03-12 04:49:00,31.8,30.3,30.18,NNE,32,0.0,0.0,94,0.00,,---,0.00,VWS V14.01,2013-03-12 11:49:00,
2013-03-12 04:53:00,31.5,30.0,30.18,NNE,32,0.0,0.0,94,0.00,,---,0.00,VWS V14.01,2013-03-12 11:53:00,
2013-03-12 04:58:00,30.1,28.6,30.18,NNE,32,0.0,0.0,94,0.00,,---,0.00,VWS V14.01,2013-03-12 11:58:00,
2013-03-12 05:00:00,29.9,28.1,30.18,NNE,32,0.0,0.0,93,0.00,,---,0.00,VWS V14.01,2013-03-12 12:00:00,
2013-03-12 05:03:00,29.5,28.0,30.18,NNE,32,0.0,0.0,94,0.00,,---,0.00,VWS V14.01,2013-03-12 12:03:00,
2013-03-12 05:08:00,29.8,28.3,30.18,NNE,32,0.0,0.0,94,0.00,,---,0.00,VWS V14.01,2013-03-12 12:08:00,
2013-03-12 05:13:00,30.3,28.8,30.18,NNE,32,0.0,0.0,94,0.00,,---,0.00,VWS V14.01,2013-03-12 12:13:00,
2013-03-12 05:15:00,30.5,29.0,30.18,NNE,32,0.0,0.0,94,0.00,,---,0.00,VWS V14.01,2013-03-12 12:15:00,
2013-03-12 05:18:00,31.0,29.5,30.18,NNE,32,0.0,0.0,94,0.00,,---,0.00,VWS V14.01,2013-03-12 12:18:00,
2013-03-12 05:23:00,31.5,30.2,30.18,NNE,32,0.0,0.0,95,0.00,,---,0.00,VWS V14.01,2013-03-12 12:23:00,
2013-03-12 05:28:00,32.9,31.6,30.18,NNE,32,0.0,0.0,95,0.00,,---,0.00,VWS V14.01,2013-03-12 12:28:00,
2013-03-12 05:30:00,33.1,31.8,30.17,NNE,32,0.0,0.0,95,0.00,,---,0.00,VWS V14.01,2013-03-12 12:30:00,
2013-03-12 05:33:00,33.1,31.8,30.17,NE,45,0.0,0.0,95,0.00,,---,0.00,VWS V14.01,2013-03-12 12:33:00,
2013-03-12 05:38:00,33.0,31.7,30.18,NE,53,3.0,5.0,95,0.00,,---,0.00,VWS V14.01,2013-03-12 12:38:00,
2013-03-12 05:43:00,31.9,30.6,30.18,NE,53,0.0,5.0,95,0.00,,---,0.00,VWS V14.01,2013-03-12 12:43:00,
2013-03-12 05:45:00,31.8,30.5,30.18,NE,53,0.0,5.0,95,0.00,,---,0.00,VWS V14.01,2013-03-12 12:45:00,
2013-03-12 05:48:00,31.6,30.3,30.18,NE,53,0.0,2.0,95,0.00,,---,0.00,VWS V14.01,2013-03-12 12:48:00,
2013-03-12 05:53:00,31.4,30.1,30.18,NE,49,0.0,3.0,95,0.00,,---,0.00,VWS V14.01,2013-03-12 12:53:00,
2013-03-12 05:58:00,30.8,29.5,30.17,NE,48,0.0,3.0,95,0.00,,---,0.00,VWS V14.01,2013-03-12 12:58:00,
2013-03-12 06:00:00,30.4,28.9,30.17,NE,49,0.0,3.0,94,0.00,,---,0.00,VWS V14.01,2013-03-12 13:00:00,
2013-03-12 06:03:00,29.6,28.1,30.17,NE,49,3.0,4.0,94,0.00,,---,0.00,VWS V14.01,2013-03-12 13:03:00,
2013-03-12 06:08:00,30.9,29.4,30.17,NE,42,0.0,5.0,94,0.00,,---,0.00,VWS V14.01,2013-03-12 13:08:00,
2013-03-12 06:13:00,31.0,29.7,30.17,NE,43,0.0,5.0,95,0.00,,---,0.00,VWS V14.01,2013-03-12 13:13:00,
2013-03-12 06:15:00,31.0,29.7,30.17,NE,43,0.0,5.0,95,0.00,,---,0.00,VWS V14.01,2013-03-12 13:15:00,
2013-03-12 06:18:00,31.2,29.9,30.17,NE,36,0.0,4.0,95,0.00,,---,0.00,VWS V14.01,2013-03-12 13:18:00,
2013-03-12 06:23:00,30.5,29.0,30.17,NE,36,0.0,4.0,94,0.00,,---,0.00,VWS V14.01,2013-03-12 13:23:00,
2013-03-12 06:28:00,30.0,28.5,30.17,NE,36,0.0,4.0,94,0.00,,---,0.00,VWS V14.01,2013-03-12 13:28:00,
2013-03-12 06:30:00,30.0,28.5,30.17,NE,36,0.0,4.0,94,0.00,,---,0.00,VWS V14.01,2013-03-12 13:30:00,
2013-03-12 06:33:00,29.7,28.2,30.17,NE,36,0.0,0.0,94,0.00,,---,0.00,VWS V14.01,2013-03-12 13:33:00,
2013-03-12 06:38:00,29.2,27.7,30.17,NE,36,0.0,0.0,94,0.00,,---,0.00,VWS V14.01,2013-03-12 13:38:00,
2013-03-12 06:43:00,28.9,27.4,30.17,NE,36,0.0,0.0,94,0.00,,---,0.00,VWS V14.01,2013-03-12 13:43:00,
2013-03-12 06:45:00,28.8,27.3,30.17,NE,36,0.0,0.0,94,0.00,,---,0.00,VWS V14.01,2013-03-12 13:45:00,
2013-03-12 06:48:00,28.2,26.7,30.17,NE,36,0.0,0.0,94,0.00,,---,0.00,VWS V14.01,2013-03-12 13:48:00,
2013-03-12 06:53:00,27.6,26.1,30.17,NE,36,0.0,0.0,94,0.00,,---,0.00,VWS V14.01,2013-03-12 13:53:00,
2013-03-12 06:58:00,27.3,25.8,30.17,NE,36,0.0,0.0,94,0.00,,---,0.00,VWS V14.01,2013-03-12 13:58:00,
2013-03-12 07:00:00,27.2,25.7,30.17,NE,36,0.0,0.0,94,0.00,,---,0.00,VWS V14.01,2013-03-12 14:00:00,
2013-03-12 07:03:00,27.3,25.8,30.17,NE,36,0.0,0.0,94,0.00,,---,0.00,VWS V14.01,2013-03-12 14:03:00,
2013-03-12 07:08:00,27.4,25.9,30.16,NE,36,0.0,0.0,94,0.00,,---,0.00,VWS V14.01,2013-03-12 14:08:00,
2013-03-12 07:13:00,27.9,26.4,30.16,NE,36,0.0,0.0,94,0.00,,---,0.00,VWS V14.01,2013-03-12 14:13:00,
2013-03-12 07:15:00,28.1,26.6,30.16,NE,36,0.0,0.0,94,0.00,,---,0.00,VWS V14.01,2013-03-12 14:15:00,
2013-03-12 07:18:00,28.7,27.5,30.16,NE,36,0.0,0.0,95,0.00,,---,0.00,VWS V14.01,2013-03-12 14:18:00,
2013-03-12 07:23:00,29.8,28.5,30.16,NE,36,0.0,0.0,95,0.00,,---,0.00,VWS V14.01,2013-03-12 14:23:00,
2013-03-12 07:28:00,30.5,29.2,30.16,NE,36,0.0,0.0,95,0.00,,---,0.00,VWS V14.01,2013-03-12 14:28:00,
2013-03-12 07:30:00,30.6,29.3,30.16,NE,36,0.0,0.0,95,0.00,,---,0.00,VWS V14.01,2013-03-12 14:30:00,
2013-03-12 07:33:00,30.6,29.3,30.16,NE,36,0.0,0.0,95,0.00,,---,0.00,VWS V14.01,2013-03-12 14:33:00,
2013-03-12 07:38:00,30.8,29.5,30.16,NE,36,0.0,0.0,95,0.00,,---,0.00,VWS V14.01,2013-03-12 14:38:00,
2013-03-12 07:43:00,30.5,29.2,30.16,NE,36,0.0,0.0,95,0.00,,---,0.00,VWS V14.01,2013-03-12 14:43:00,
2013-03-12 07:45:00,30.4,29.1,30.17,NE,36,0.0,0.0,95,0.00,,---,0.00,VWS V14.01,2013-03-12 14:45:00,
2013-03-12 07:48:00,30.2,28.9,30.17,NE,36,0.0,0.0,95,0.00,,---,0.00,VWS V14.01,2013-03-12 14:48:00,
2013-03-12 07:53:00,30.0,28.7,30.18,NE,36,0.0,0.0,95,0.00,,---,0.00,VWS V14.01,2013-03-12 14:53:00,
2013-03-12 07:58:00,29.3,28.0,30.18,NE,36,0.0,0.0,95,0.00,,---,0.00,VWS V14.01,2013-03-12 14:58:00,
2013-03-12 08:00:00,29.0,27.8,30.18,NE,36,0.0,0.0,95,0.00,,---,0.00,VWS V14.01,2013-03-12 15:00:00,
2013-03-12 08:03:00,28.4,27.1,30.18,NE,36,0.0,0.0,95,0.00,,---,0.00,VWS V14.01,2013-03-12 15:03:00,
2013-03-12 08:08:00,28.1,26.9,30.17,NE,36,0.0,0.0,95,0.00,,---,0.00,VWS V14.01,2013-03-12 15:08:00,
2013-03-12 08:13:00,29.2,28.0,30.17,NE,36,0.0,0.0,95,0.00,,---,0.00,VWS V14.01,2013-03-12 15:13:00,
2013-03-12 08:15:00,29.4,28.1,30.17,NE,36,0.0,0.0,95,0.00,,---,0.00,VWS V14.01,2013-03-12 15:15:00,
2013-03-12 08:18:00,29.9,28.6,30.17,NE,36,0.0,0.0,95,0.00,,---,0.00,VWS V14.01,2013-03-12 15:18:00,
2013-03-12 08:23:00,30.6,29.3,30.17,NE,36,0.0,0.0,95,0.00,,---,0.00,VWS V14.01,2013-03-12 15:23:00,
2013-03-12 08:28:00,31.4,30.1,30.17,NE,36,0.0,0.0,95,0.00,,---,0.00,VWS V14.01,2013-03-12 15:28:00,
2013-03-12 08:30:00,31.8,30.5,30.17,NE,36,0.0,0.0,95,0.00,,---,0.00,VWS V14.01,2013-03-12 15:30:00,
2013-03-12 08:33:00,32.9,31.6,30.17,NE,52,5.0,5.0,95,0.00,,---,0.00,VWS V14.01,2013-03-12 15:33:00,
2013-03-12 08:38:00,34.0,32.7,30.17,NE,52,2.0,5.0,95,0.00,,---,0.00,VWS V14.01,2013-03-12 15:38:00,
2013-03-12 08:43:00,34.4,33.1,30.17,NE,52,0.0,5.0,95,0.00,,---,0.00,VWS V14.01,2013-03-12 15:43:00,
2013-03-12 08:45:00,34.4,33.1,30.17,NE,52,0.0,5.0,95,0.00,,---,0.00,VWS V14.01,2013-03-12 15:45:00,
2013-03-12 08:48:00,34.5,33.2,30.17,NE,53,0.0,0.0,95,0.00,,---,0.00,VWS V14.01,2013-03-12 15:48:00,
2013-03-12 08:53:00,34.8,33.8,30.17,NE,53,0.0,0.0,96,0.00,,---,0.00,VWS V14.01,2013-03-12 15:53:00,
2013-03-12 08:58:00,34.9,33.6,30.17,NE,52,0.0,0.0,95,0.00,,---,0.00,VWS V14.01,2013-03-12 15:58:00,
2013-03-12 09:00:00,35.0,33.7,30.17,NE,53,0.0,0.0,95,0.00,,---,0.00,VWS V14.01,2013-03-12 16:00:00,
2013-03-12 09:03:00,35.0,33.7,30.17,NE,52,0.0,0.0,95,0.00,,---,0.00,VWS V14.01,2013-03-12 16:03:00,
2013-03-12 09:08:00,35.2,33.9,30.18,NE,53,0.0,0.0,95,0.00,,---,0.00,VWS V14.01,2013-03-12 16:08:00,
2013-03-12 09:13:00,35.4,34.1,30.18,NE,52,0.0,0.0,95,0.00,,---,0.00,VWS V14.01,2013-03-12 16:13:00,
2013-03-12 09:15:00,35.4,34.1,30.18,NE,52,0.0,0.0,95,0.00,,---,0.00,VWS V14.01,2013-03-12 16:15:00,
2013-03-12 09:18:00,35.4,34.1,30.18,NE,46,0.0,0.0,95,0.00,,---,0.00,VWS V14.01,2013-03-12 16:18:00,
2013-03-12 09:23:00,35.4,34.1,30.17,NE,46,0.0,0.0,95,0.00,,---,0.00,VWS V14.01,2013-03-12 16:23:00,
2013-03-12 09:28:00,35.7,34.4,30.18,NE,46,0.0,0.0,95,0.00,,---,0.00,VWS V14.01,2013-03-12 16:28:00,
2013-03-12 09:30:00,35.9,34.6,30.18,NE,46,0.0,0.0,95,0.00,,---,0.00,VWS V14.01,2013-03-12 16:30:00,
2013-03-12 09:33:00,36.1,34.8,30.18,NE,46,0.0,0.0,95,0.00,,---,0.00,VWS V14.01,2013-03-12 16:33:00,
2013-03-12 09:38:00,36.7,35.4,30.17,NE,46,0.0,0.0,95,0.00,,---,0.00,VWS V14.01,2013-03-12 16:38:00,
2013-03-12 09:43:00,37.5,36.2,30.18,NE,46,0.0,0.0,95,0.00,,---,0.00,VWS V14.01,2013-03-12 16:43:00,
2013-03-12 09:45:00,37.8,36.5,30.18,NE,46,0.0,0.0,95,0.00,,---,0.00,VWS V14.01,2013-03-12 16:45:00,
2013-03-12 09:48:00,38.2,36.6,30.17,NE,46,0.0,0.0,94,0.00,,---,0.00,VWS V14.01,2013-03-12 16:48:00,
2013-03-12 09:53:00,38.4,36.8,30.18,NE,46,0.0,0.0,94,0.00,,---,0.00,VWS V14.01,2013-03-12 16:53:00,
2013-03-12 09:58:00,38.7,36.8,30.18,NE,46,0.0,0.0,93,0.00,,---,0.00,VWS V14.01,2013-03-12 16:58:00,
2013-03-12 10:00:00,38.8,37.0,30.18,NE,46,0.0,0.0,93,0.00,,---,0.00,VWS V14.01,2013-03-12 17:00:00,
2013-03-12 10:03:00,39.1,37.2,30.18,NE,46,0.0,0.0,93,0.00,,---,0.00,VWS V14.01,2013-03-12 17:03:00,
2013-03-12 10:08:00,39.4,37.3,30.18,NE,46,0.0,0.0,92,0.00,,---,0.00,VWS V14.01,2013-03-12 17:08:00,
2013-03-12 10:13:00,39.8,37.7,30.18,NE,46,0.0,0.0,92,0.00,,---,0.00,VWS V14.01,2013-03-12 17:13:00,
2013-03-12 10:15:00,40.0,37.9,30.18,NE,46,0.0,0.0,92,0.00,,---,0.00,VWS V14.01,2013-03-12 17:15:00,
2013-03-12 10:18:00,40.3,37.9,30.18,NE,46,0.0,0.0,91,0.00,,---,0.00,VWS V14.01,2013-03-12 17:18:00,
2013-03-12 10:23:00,40.8,38.4,30.18,NE,46,0.0,0.0,91,0.00,,---,0.00,VWS V14.01,2013-03-12 17:23:00,
2013-03-12 10:28:00,41.4,38.7,30.18,NE,46,0.0,0.0,90,0.00,,---,0.00,VWS V14.01,2013-03-12 17:28:00,
2013-03-12 10:30:00,41.5,38.8,30.18,NE,46,0.0,0.0,90,0.00,,---,0.00,VWS V14.01,2013-03-12 17:30:00,
2013-03-12 10:33:00,41.9,39.2,30.18,NE,46,0.0,0.0,90,0.00,,---,0.00,VWS V14.01,2013-03-12 17:33:00,
2013-03-12 10:38:00,42.4,39.4,30.18,NE,46,0.0,0.0,89,0.00,,---,0.00,VWS V14.01,2013-03-12 17:38:00,
2013-03-12 10:43:00,43.0,39.7,30.17,NE,46,0.0,0.0,88,0.00,,---,0.00,VWS V14.01,2013-03-12 17:43:00,
2013-03-12 10:45:00,43.2,41.0,30.17,NE,46,0.0,0.0,92,0.00,,---,0.00,VWS V14.01,2013-03-12 17:45:00,
2013-03-12 10:48:00,43.4,39.8,30.17,NE,46,0.0,0.0,87,0.00,,---,0.00,VWS V14.01,2013-03-12 17:48:00,
2013-03-12 10:53:00,43.6,39.7,30.17,NE,46,0.0,0.0,86,0.00,,---,0.00,VWS V14.01,2013-03-12 17:53:00,
2013-03-12 10:58:00,43.9,40.0,30.17,NE,46,0.0,0.0,86,0.00,,---,0.00,VWS V14.01,2013-03-12 17:58:00,
2013-03-12 11:00:00,44.0,40.1,30.17,NE,46,0.0,0.0,86,0.00,,---,0.00,VWS V14.01,2013-03-12 18:00:00,
2013-03-12 11:03:00,44.2,40.0,30.17,NE,46,0.0,0.0,85,0.00,,---,0.00,VWS V14.01,2013-03-12 18:03:00,
2013-03-12 11:08:00,44.4,40.2,30.17,NE,46,0.0,0.0,85,0.00,,---,0.00,VWS V14.01,2013-03-12 18:08:00,
2013-03-12 11:13:00,44.9,40.1,30.17,NE,46,0.0,0.0,83,0.00,,---,0.00,VWS V14.01,2013-03-12 18:13:00,
2013-03-12 11:15:00,45.1,40.6,30.17,NE,46,0.0,0.0,84,0.00,,---,0.00,VWS V14.01,2013-03-12 18:15:00,
2013-03-12 11:18:00,45.3,40.5,30.17,NE,46,0.0,0.0,83,0.00,,---,0.00,VWS V14.01,2013-03-12 18:18:00,
2013-03-12 11:23:00,46.0,41.1,30.17,NE,46,0.0,0.0,83,0.00,,---,0.00,VWS V14.01,2013-03-12 18:23:00,
2013-03-12 11:28:00,46.6,41.1,30.16,NE,46,0.0,0.0,81,0.00,,---,0.00,VWS V14.01,2013-03-12 18:28:00,
2013-03-12 11:30:00,46.8,41.3,30.16,NE,46,0.0,0.0,81,0.00,,---,0.00,VWS V14.01,2013-03-12 18:30:00,
2013-03-12 11:33:00,47.1,41.3,30.17,NE,46,0.0,0.0,80,0.00,,---,0.00,VWS V14.01,2013-03-12 18:33:00,
2013-03-12 11:38:00,47.5,41.7,30.17,NE,46,0.0,0.0,80,0.00,,---,0.00,VWS V14.01,2013-03-12 18:38:00,
2013-03-12 11:43:00,48.3,42.1,30.16,NE,46,0.0,0.0,79,0.00,,---,0.00,VWS V14.01,2013-03-12 18:43:00,
2013-03-12 11:45:00,48.5,42.0,30.16,NE,46,0.0,0.0,78,0.00,,---,0.00,VWS V14.01,2013-03-12 18:45:00,
2013-03-12 11:48:00,49.1,42.2,30.16,NE,46,0.0,0.0,77,0.00,,---,0.00,VWS V14.01,2013-03-12 18:48:00,
2013-03-12 11:53:00,49.7,42.1,30.16,NE,46,0.0,0.0,75,0.00,,---,0.00,VWS V14.01,2013-03-12 18:53:00,
2013-03-12 11:58:00,50.0,41.7,30.16,NE,46,0.0,0.0,73,0.00,,---,0.00,VWS V14.01,2013-03-12 18:58:00,
2013-03-12 12:00:00,50.0,42.0,30.16,NE,46,0.0,3.0,74,0.00,,---,0.00,VWS V14.01,2013-03-12 19:00:00,
2013-03-12 12:03:00,50.4,42.4,30.16,NE,46,0.0,0.0,74,0.00,,---,0.00,VWS V14.01,2013-03-12 19:03:00,
2013-03-12 12:08:00,51.1,42.0,30.16,NE,46,0.0,0.0,71,0.00,,---,0.00,VWS V14.01,2013-03-12 19:08:00,
2013-03-12 12:13:00,51.8,42.0,30.16,NE,46,0.0,0.0,69,0.00,,---,0.00,VWS V14.01,2013-03-12 19:13:00,
2013-03-12 12:15:00,52.0,41.8,30.16,NE,46,0.0,0.0,68,0.00,,---,0.00,VWS V14.01,2013-03-12 19:15:00,
2013-03-12 12:18:00,52.4,41.4,30.16,East,88,0.0,0.0,66,0.00,,---,0.00,VWS V14.01,2013-03-12 19:18:00,
2013-03-12 12:23:00,52.6,40.4,30.16,East,87,0.0,0.0,63,0.00,,---,0.00,VWS V14.01,2013-03-12 19:23:00,
2013-03-12 12:28:00,53.0,40.8,30.15,East,86,0.0,3.0,63,0.00,,---,0.00,VWS V14.01,2013-03-12 19:28:00,
2013-03-12 12:30:00,53.1,40.8,30.15,East,86,0.0,3.0,63,0.00,,---,0.00,VWS V14.01,2013-03-12 19:30:00,
2013-03-12 12:33:00,53.5,41.2,30.15,East,86,0.0,0.0,63,0.00,,---,0.00,VWS V14.01,2013-03-12 19:33:00,
2013-03-12 12:38:00,53.8,40.3,30.15,East,80,0.0,0.0,60,0.00,,---,0.00,VWS V14.01,2013-03-12 19:38:00,
2013-03-12 12:43:00,54.2,40.2,30.15,ENE,67,0.0,4.0,59,0.00,,---,0.00,VWS V14.01,2013-03-12 19:43:00,
2013-03-12 12:45:00,54.1,40.1,30.15,ENE,71,0.0,4.0,59,0.00,,---,0.00,VWS V14.01,2013-03-12 19:45:00,
2013-03-12 12:48:00,54.1,40.1,30.15,ENE,71,0.0,0.0,59,0.00,,---,0.00,VWS V14.01,2013-03-12 19:48:00,
2013-03-12 12:53:00,54.2,39.3,30.15,ESE,114,0.0,4.0,57,0.00,,---,0.00,VWS V14.01,2013-03-12 19:53:00,
2013-03-12 12:58:00,54.3,39.8,30.15,ESE,115,0.0,4.0,58,0.00,,---,0.00,VWS V14.01,2013-03-12 19:58:00,
2013-03-12 13:00:00,54.4,40.0,30.15,ESE,114,0.0,4.0,58,0.00,,---,0.00,VWS V14.01,2013-03-12 20:00:00,
2013-03-12 13:03:00,54.6,39.7,30.15,ENE,65,0.0,0.0,57,0.00,,---,0.00,VWS V14.01,2013-03-12 20:03:00,
2013-03-12 13:08:00,54.8,39.9,30.15,ENE,65,0.0,0.0,57,0.00,,---,0.00,VWS V14.01,2013-03-12 20:08:00,
2013-03-12 13:13:00,55.0,40.1,30.15,East,101,2.0,5.0,57,0.00,,---,0.00,VWS V14.01,2013-03-12 20:13:00,
2013-03-12 13:15:00,54.9,39.5,30.15,East,101,0.0,5.0,56,0.00,,---,0.00,VWS V14.01,2013-03-12 20:15:00,
2013-03-12 13:18:00,55.0,39.6,30.14,East,101,0.0,0.0,56,0.00,,---,0.00,VWS V14.01,2013-03-12 20:18:00,
2013-03-12 13:23:00,55.3,39.9,30.14,East,101,0.0,0.0,56,0.00,,---,0.00,VWS V14.01,2013-03-12 20:23:00,
2013-03-12 13:28:00,55.6,40.2,30.14,North,360,5.0,5.0,56,0.00,,---,0.00,VWS V14.01,2013-03-12 20:28:00,
2013-03-12 13:30:00,55.5,40.1,30.14,North,9,3.0,5.0,56,0.00,,---,0.00,VWS V14.01,2013-03-12 20:30:00,
2013-03-12 13:33:00,55.5,39.6,30.14,North,9,0.0,3.0,55,0.00,,---,0.00,VWS V14.01,2013-03-12 20:33:00,
2013-03-12 13:38:00,55.9,39.5,30.14,North,9,0.0,3.0,54,0.00,,---,0.00,VWS V14.01,2013-03-12 20:38:00,
2013-03-12 13:43:00,55.9,39.0,30.14,North,10,0.0,3.0,53,0.00,,---,0.00,VWS V14.01,2013-03-12 20:43:00,
2013-03-12 13:45:00,55.9,39.0,30.14,North,11,0.0,3.0,53,0.00,,---,0.00,VWS V14.01,2013-03-12 20:45:00,
2013-03-12 13:48:00,55.9,39.5,30.14,North,11,0.0,0.0,54,0.00,,---,0.00,VWS V14.01,2013-03-12 20:48:00,
2013-03-12 13:53:00,56.1,39.2,30.14,North,11,0.0,0.0,53,0.00,,---,0.00,VWS V14.01,2013-03-12 20:53:00,
2013-03-12 13:58:00,56.4,39.0,30.14,WNW,291,0.0,5.0,52,0.00,,---,0.00,VWS V14.01,2013-03-12 20:58:00,
2013-03-12 14:00:00,56.5,40.1,30.13,WNW,292,0.0,9.0,54,0.00,,---,0.00,VWS V14.01,2013-03-12 21:00:00,
2013-03-12 14:03:00,56.5,39.1,30.13,WNW,292,0.0,4.0,52,0.00,,---,0.00,VWS V14.01,2013-03-12 21:03:00,
2013-03-12 14:08:00,56.7,39.3,30.13,NW,306,0.0,4.0,52,0.00,,---,0.00,VWS V14.01,2013-03-12 21:08:00,
2013-03-12 14:13:00,56.8,38.9,30.13,NW,306,0.0,4.0,51,0.00,,---,0.00,VWS V14.01,2013-03-12 21:13:00,
2013-03-12 14:15:00,56.8,39.4,30.13,West,261,0.0,4.0,52,0.00,,---,0.00,VWS V14.01,2013-03-12 21:15:00,
2013-03-12 14:18:00,56.7,39.3,30.13,WSW,252,0.0,4.0,52,0.00,,---,0.00,VWS V14.01,2013-03-12 21:18:00,
2013-03-12 14:23:00,56.7,38.8,30.12,WSW,252,0.0,4.0,51,0.00,,---,0.00,VWS V14.01,2013-03-12 21:23:00,
2013-03-12 14:28:00,57.1,39.2,30.12,WSW,252,0.0,4.0,51,0.00,,---,0.00,VWS V14.01,2013-03-12 21:28:00,
2013-03-12 14:30:00,57.3,39.3,30.12,WSW,252,0.0,4.0,51,0.00,,---,0.00,VWS V14.01,2013-03-12 21:30:00,
2013-03-12 14:33:00,57.4,38.9,30.12,WSW,252,0.0,3.0,50,0.00,,---,0.00,VWS V14.01,2013-03-12 21:33:00,
2013-03-12 14:38:00,57.3,38.8,30.12,WNW,296,0.0,3.0,50,0.00,,---,0.00,VWS V14.01,2013-03-12 21:38:00,
2013-03-12 14:43:00,57.5,39.0,30.11,WNW,296,0.0,3.0,50,0.00,,---,0.00,VWS V14.01,2013-03-12 21:43:00,
2013-03-12 14:45:00,57.6,39.1,30.11,WNW,296,0.0,3.0,50,0.00,,---,0.00,VWS V14.01,2013-03-12 21:45:00,
2013-03-12 14:48:00,58.1,39.1,30.11,WNW,296,0.0,0.0,49,0.00,,---,0.00,VWS V14.01,2013-03-12 21:48:00,
2013-03-12 14:53:00,58.9,39.3,30.11,NW,310,0.0,1.0,48,0.00,,---,0.00,VWS V14.01,2013-03-12 21:53:00,
2013-03-12 14:58:00,59.0,38.8,30.11,NW,310,0.0,4.0,47,0.00,,---,0.00,VWS V14.01,2013-03-12 21:58:00,
2013-03-12 15:00:00,59.0,38.8,30.11,NW,310,0.0,4.0,47,0.00,,---,0.00,VWS V14.01,2013-03-12 22:00:00,
2013-03-12 15:03:00,59.6,39.4,30.11,WNW,296,2.0,2.0,47,0.00,,---,0.00,VWS V14.01,2013-03-12 22:03:00,
2013-03-12 15:08:00,59.5,39.3,30.10,ESE,105,4.0,5.0,47,0.00,,---,0.00,VWS V14.01,2013-03-12 22:08:00,
2013-03-12 15:13:00,59.9,39.1,30.10,NE,55,2.0,5.0,46,0.00,,---,0.00,VWS V14.01,2013-03-12 22:13:00,
2013-03-12 15:15:00,59.8,38.4,30.10,NE,53,3.0,5.0,45,0.00,,---,0.00,VWS V14.01,2013-03-12 22:15:00,
2013-03-12 15:18:00,59.5,38.2,30.11,NE,44,3.0,5.0,45,0.00,,---,0.00,VWS V14.01,2013-03-12 22:18:00,
2013-03-12 15:23:00,59.8,37.9,30.11,SSE,163,7.0,7.0,44,0.00,,---,0.00,VWS V14.01,2013-03-12 22:23:00,
2013-03-12 15:28:00,60.5,38.5,30.11,SE,133,0.0,7.0,44,0.00,,---,0.00,VWS V14.01,2013-03-12 22:28:00,
2013-03-12 15:30:00,61.1,39.0,30.11,SE,134,0.0,7.0,44,0.00,,---,0.00,VWS V14.01,2013-03-12 22:30:00,
2013-03-12 15:33:00,61.5,38.2,30.11,WSW,248,0.0,1.0,42,0.00,,---,0.00,VWS V14.01,2013-03-12 22:33:00,
2013-03-12 15:38:00,61.7,37.2,30.11,South,178,1.0,9.0,40,0.00,,---,0.00,VWS V14.01,2013-03-12 22:38:00,
2013-03-12 15:43:00,61.4,36.9,30.11,SE,138,0.0,9.0,40,0.00,,---,0.00,VWS V14.01,2013-03-12 22:43:00,
2013-03-12 15:45:00,61.4,37.5,30.10,SE,138,0.0,9.0,41,0.00,,---,0.00,VWS V14.01,2013-03-12 22:45:00,
2013-03-12 15:48:00,61.7,37.8,30.10,South,174,0.0,5.0,41,0.00,,---,0.00,VWS V14.01,2013-03-12 22:48:00,
2013-03-12 15:53:00,61.3,36.8,30.09,SSE,165,0.0,5.0,40,0.00,,---,0.00,VWS V14.01,2013-03-12 22:53:00,
2013-03-12 15:58:00,61.2,33.3,30.09,SSE,167,0.0,5.0,35,0.00,,---,0.00,VWS V14.01,2013-03-12 22:58:00,
2013-03-12 16:00:00,61.2,34.1,30.09,SSE,167,0.0,5.0,36,0.00,,---,0.00,VWS V14.01,2013-03-12 23:00:00,
2013-03-12 16:03:00,61.0,32.5,30.09,SSE,167,0.0,0.0,34,0.00,,---,0.00,VWS V14.01,2013-03-12 23:03:00,
2013-03-12 16:08:00,61.1,34.0,30.09,SSE,167,0.0,0.0,36,0.00,,---,0.00,VWS V14.01,2013-03-12 23:08:00,
2013-03-12 16:13:00,61.3,34.8,30.09,West,260,0.0,4.0,37,0.00,,---,0.00,VWS V14.01,2013-03-12 23:13:00,
2013-03-12 16:15:00,61.3,34.8,30.09,West,261,0.0,4.0,37,0.00,,---,0.00,VWS V14.01,2013-03-12 23:15:00,
2013-03-12 16:18:00,61.4,34.2,30.09,West,276,0.0,5.0,36,0.00,,---,0.00,VWS V14.01,2013-03-12 23:18:00,
2013-03-12 16:23:00,60.9,34.5,30.10,West,271,0.0,8.0,37,0.00,,---,0.00,VWS V14.01,2013-03-12 23:23:00,
2013-03-12 16:28:00,60.9,34.5,30.10,WSW,248,0.0,8.0,37,0.00,,---,0.00,VWS V14.01,2013-03-12 23:28:00,
2013-03-12 16:30:00,60.9,35.2,30.10,SW,223,7.0,8.0,38,0.00,,---,0.00,VWS V14.01,2013-03-12 23:30:00,
2013-03-12 16:33:00,61.1,35.3,30.10,SW,226,0.0,8.0,38,0.00,,---,0.00,VWS V14.01,2013-03-12 23:33:00,
2013-03-12 16:38:00,61.3,36.2,30.09,WSW,240,0.0,8.0,39,0.00,,---,0.00,VWS V14.01,2013-03-12 23:38:00,
2013-03-12 16:43:00,61.4,34.9,30.09,SW,236,8.0,8.0,37,0.00,,---,0.00,VWS V14.01,2013-03-12 23:43:00,
2013-03-12 16:45:00,61.3,34.8,30.09,SW,227,0.0,8.0,37,0.00,,---,0.00,VWS V14.01,2013-03-12 23:45:00,
2013-03-12 16:48:00,61.4,34.9,30.09,SW,225,3.0,5.0,37,0.00,,---,0.00,VWS V14.01,2013-03-12 23:48:00,
2013-03-12 16:53:00,61.3,34.8,30.09,WSW,242,0.0,6.0,37,0.00,,---,0.00,VWS V14.01,2013-03-12 23:53:00,
2013-03-12 16:58:00,61.7,34.5,30.09,SW,223,3.0,6.0,36,0.00,,---,0.00,VWS V14.01,2013-03-12 23:58:00,
2013-03-12 17:00:00,61.7,33.8,30.09,SW,221,0.0,6.0,35,0.00,,---,0.00,VWS V14.01,2013-03-13 00:00:00,
2013-03-12 17:03:00,61.7,33.8,30.09,SW,221,0.0,0.0,35,0.00,,---,0.00,VWS V14.01,2013-03-13 00:03:00,
2013-03-12 17:08:00,62.1,34.2,30.09,SW,222,5.0,9.0,35,0.00,,---,0.00,VWS V14.01,2013-03-13 00:08:00,
2013-03-12 17:13:00,61.8,34.6,30.09,West,276,8.0,9.0,36,0.00,,---,0.00,VWS V14.01,2013-03-13 00:13:00,
2013-03-12 17:15:00,61.7,33.8,30.09,SW,225,0.0,9.0,35,0.00,,---,0.00,VWS V14.01,2013-03-13 00:15:00,
2013-03-12 17:18:00,61.8,34.6,30.08,SW,218,0.0,4.0,36,0.00,,---,0.00,VWS V14.01,2013-03-13 00:18:00,
2013-03-12 17:23:00,61.5,34.3,30.08,WSW,244,0.0,6.0,36,0.00,,---,0.00,VWS V14.01,2013-03-13 00:23:00,
2013-03-12 17:28:00,61.1,34.7,30.08,West,265,4.0,6.0,37,0.00,,---,0.00,VWS V14.01,2013-03-13 00:28:00,
2013-03-12 17:30:00,60.9,34.5,30.08,West,265,0.0,6.0,37,0.00,,---,0.00,VWS V14.01,2013-03-13 00:30:00,
2013-03-12 17:33:00,60.7,35.6,30.08,WNW,284,1.0,7.0,39,0.00,,---,0.00,VWS V14.01,2013-03-13 00:33:00,
2013-03-12 17:38:00,60.3,35.9,30.08,West,281,5.0,7.0,40,0.00,,---,0.00,VWS V14.01,2013-03-13 00:38:00,
2013-03-12 17:43:00,60.0,36.2,30.08,West,268,0.0,7.0,41,0.00,,---,0.00,VWS V14.01,2013-03-13 00:43:00,
2013-03-12 17:45:00,59.9,36.2,30.08,West,268,0.0,7.0,41,0.00,,---,0.00,VWS V14.01,2013-03-13 00:45:00,
2013-03-12 17:48:00,59.9,35.5,30.08,West,268,0.0,0.0,40,0.00,,---,0.00,VWS V14.01,2013-03-13 00:48:00,
2013-03-12 17:53:00,59.8,35.5,30.08,West,269,0.0,0.0,40,0.00,,---,0.00,VWS V14.01,2013-03-13 00:53:00,
2013-03-12 17:58:00,59.9,36.2,30.08,West,269,0.0,0.0,41,0.00,,---,0.00,VWS V14.01,2013-03-13 00:58:00,
2013-03-12 18:00:00,59.9,35.5,30.08,West,268,0.0,0.0,40,0.00,,---,0.00,VWS V14.01,2013-03-13 01:00:00,
2013-03-12 18:03:00,59.9,34.2,30.08,West,260,2.0,8.0,38,0.00,,---,0.00,VWS V14.01,2013-03-13 01:03:00,
2013-03-12 18:08:00,60.0,33.0,30.08,West,272,0.0,8.0,36,0.00,,---,0.00,VWS V14.01,2013-03-13 01:08:00,
2013-03-12 18:13:00,60.1,32.4,30.08,West,271,0.0,8.0,35,0.00,,---,0.00,VWS V14.01,2013-03-13 01:13:00,
2013-03-12 18:15:00,60.0,31.6,30.08,West,273,10.0,10.0,34,0.00,,---,0.00,VWS V14.01,2013-03-13 01:15:00,
2013-03-12 18:18:00,59.9,29.2,30.08,WSW,254,11.0,13.0,31,0.00,,---,0.00,VWS V14.01,2013-03-13 01:18:00,
2013-03-12 18:23:00,59.3,29.5,30.08,West,269,10.0,13.0,32,0.00,,---,0.00,VWS V14.01,2013-03-13 01:23:00,
2013-03-12 18:28:00,58.9,28.3,30.08,WSW,253,8.0,13.0,31,0.00,,---,0.00,VWS V14.01,2013-03-13 01:28:00,
2013-03-12 18:30:00,58.6,28.1,30.08,WSW,257,10.0,14.0,31,0.00,,---,0.00,VWS V14.01,2013-03-13 01:30:00,
2013-03-12 18:33:00,58.4,27.1,30.08,WSW,249,7.0,12.0,30,0.00,,---,0.00,VWS V14.01,2013-03-13 01:33:00,
2013-03-12 18:38:00,57.9,27.5,30.09,WSW,248,5.0,12.0,31,0.00,,---,0.00,VWS V14.01,2013-03-13 01:38:00,
2013-03-12 18:43:00,57.5,27.1,30.09,WSW,244,6.0,12.0,31,0.00,,---,0.00,VWS V14.01,2013-03-13 01:43:00,
2013-03-12 18:45:00,57.4,27.0,30.09,WSW,240,5.0,12.0,31,0.00,,---,0.00,VWS V14.01,2013-03-13 01:45:00,
2013-03-12 18:48:00,57.2,27.6,30.09,WSW,238,5.0,7.0,32,0.00,,---,0.00,VWS V14.01,2013-03-13 01:48:00,
2013-03-12 18:53:00,56.5,27.8,30.09,SW,236,4.0,7.0,33,0.00,,---,0.00,VWS V14.01,2013-03-13 01:53:00,
2013-03-12 18:58:00,55.7,27.8,30.09,WSW,243,0.0,7.0,34,0.00,,---,0.00,VWS V14.01,2013-03-13 01:58:00,
2013-03-12 19:00:00,55.4,28.9,30.09,WSW,242,0.0,7.0,36,0.00,,---,0.00,VWS V14.01,2013-03-13 02:00:00,
2013-03-12 19:03:00,55.1,28.6,30.09,WSW,242,0.0,3.0,36,0.00,,---,0.00,VWS V14.01,2013-03-13 02:03:00,
2013-03-12 19:08:00,55.2,28.7,30.09,WSW,243,0.0,3.0,36,0.00,,---,0.00,VWS V14.01,2013-03-13 02:08:00,
2013-03-12 19:13:00,55.0,29.2,30.10,WSW,253,0.0,3.0,37,0.00,,---,0.00,VWS V14.01,2013-03-13 02:13:00,
2013-03-12 19:15:00,54.7,29.6,30.10,WSW,253,0.0,3.0,38,0.00,,---,0.00,VWS V14.01,2013-03-13 02:15:00,
2013-03-12 19:18:00,53.9,29.5,30.10,WSW,254,0.0,0.0,39,0.00,,---,0.00,VWS V14.01,2013-03-13 02:18:00,
2013-03-12 19:23:00,53.7,30.0,30.10,NNW,342,0.0,0.0,40,0.00,,---,0.00,VWS V14.01,2013-03-13 02:23:00,
2013-03-12 19:28:00,54.4,31.2,30.10,NNW,343,3.0,4.0,41,0.00,,---,0.00,VWS V14.01,2013-03-13 02:28:00,
2013-03-12 19:30:00,54.6,30.8,30.10,NNW,342,0.0,4.0,40,0.00,,---,0.00,VWS V14.01,2013-03-13 02:30:00,
2013-03-12 19:33:00,54.6,30.8,30.10,NNW,342,0.0,0.0,40,0.00,,---,0.00,VWS V14.01,2013-03-13 02:33:00,
2013-03-12 19:38:00,54.4,30.6,30.10,NNW,342,3.0,3.0,40,0.00,,---,0.00,VWS V14.01,2013-03-13 02:38:00,
2013-03-12 19:43:00,54.2,30.4,30.11,NNW,343,0.0,4.0,40,0.00,,---,0.00,VWS V14.01,2013-03-13 02:43:00,
2013-03-12 19:45:00,54.3,30.5,30.11,NNW,343,0.0,4.0,40,0.00,,---,0.00,VWS V14.01,2013-03-13 02:45:00,
2013-03-12 19:48:00,54.2,30.4,30.11,NNW,343,0.0,1.0,40,0.00,,---,0.00,VWS V14.01,2013-03-13 02:48:00,
2013-03-12 19:53:00,53.6,29.9,30.11,NNW,343,0.0,1.0,40,0.00,,---,0.00,VWS V14.01,2013-03-13 02:53:00,
2013-03-12 19:58:00,52.9,29.9,30.11,NNW,343,0.0,1.0,41,0.00,,---,0.00,VWS V14.01,2013-03-13 02:58:00,
2013-03-12 20:00:00,52.5,30.1,30.11,NNW,343,0.0,1.0,42,0.00,,---,0.00,VWS V14.01,2013-03-13 03:00:00,
2013-03-12 20:03:00,52.0,30.2,30.11,NNW,343,0.0,0.0,43,0.00,,---,0.00,VWS V14.01,2013-03-13 03:03:00,
2013-03-12 20:08:00,51.9,29.5,30.12,NNW,345,0.0,2.0,42,0.00,,---,0.00,VWS V14.01,2013-03-13 03:08:00,
2013-03-12 20:13:00,52.7,29.7,30.12,NNW,345,0.0,5.0,41,0.00,,---,0.00,VWS V14.01,2013-03-13 03:13:00,
2013-03-12 20:15:00,53.1,30.0,30.12,NNW,345,0.0,5.0,41,0.00,,---,0.00,VWS V14.01,2013-03-13 03:15:00,
2013-03-12 20:18:00,53.3,29.6,30.12,NNW,345,0.0,0.0,40,0.00,,---,0.00,VWS V14.01,2013-03-13 03:18:00,
2013-03-12 20:23:00,53.5,29.8,30.12,NNW,345,0.0,0.0,40,0.00,,---,0.00,VWS V14.01,2013-03-13 03:23:00,
2013-03-12 20:28:00,53.7,30.0,30.12,NNW,345,0.0,0.0,40,0.00,,---,0.00,VWS V14.01,2013-03-13 03:28:00,
2013-03-12 20:30:00,53.7,30.0,30.12,NNW,345,0.0,0.0,40,0.00,,---,0.00,VWS V14.01,2013-03-13 03:30:00,
2013-03-12 20:33:00,53.5,29.8,30.12,NNW,345,0.0,0.0,40,0.00,,---,0.00,VWS V14.01,2013-03-13 03:33:00,
2013-03-12 20:38:00,52.2,30.4,30.12,ENE,76,0.0,0.0,43,0.00,,---,0.00,VWS V14.01,2013-03-13 03:38:00,
2013-03-12 20:43:00,51.0,31.5,30.12,ENE,76,0.0,0.0,47,0.00,,---,0.00,VWS V14.01,2013-03-13 03:43:00,
2013-03-12 20:45:00,50.2,31.3,30.12,ENE,76,0.0,0.0,48,0.00,,---,0.00,VWS V14.01,2013-03-13 03:45:00,
2013-03-12 20:48:00,49.2,31.4,30.12,ENE,76,0.0,0.0,50,0.00,,---,0.00,VWS V14.01,2013-03-13 03:48:00,
2013-03-12 20:53:00,49.4,31.6,30.12,NE,48,4.0,5.0,50,0.00,,---,0.00,VWS V14.01,2013-03-13 03:53:00,
2013-03-12 20:58:00,49.1,31.8,30.12,NE,38,6.0,6.0,51,0.00,,---,0.00,VWS V14.01,2013-03-13 03:58:00,
2013-03-12 21:00:00,49.0,32.2,30.12,NE,39,4.0,6.0,52,0.00,,---,0.00,VWS V14.01,2013-03-13 04:00:00,
2013-03-12 21:05:00,48.1,32.3,30.12,NE,38,4.0,5.0,54,0.00,,---,0.00,VWS V14.01,2013-03-13 04:05:00,
2013-03-12 21:10:00,47.4,32.1,30.12,NE,38,5.0,5.0,55,0.00,,---,0.00,VWS V14.01,2013-03-13 04:10:00,
2013-03-12 21:15:00,47.1,32.2,30.12,NE,46,4.0,5.0,56,0.00,,---,0.00,VWS V14.01,2013-03-13 04:15:00,
2013-03-12 21:20:00,45.5,32.4,30.12,NE,54,4.0,4.0,60,0.00,,---,0.00,VWS V14.01,2013-03-13 04:20:00,
2013-03-12 21:25:00,45.0,32.8,30.12,NE,44,4.0,5.0,62,0.00,,---,0.00,VWS V14.01,2013-03-13 04:25:00,
2013-03-12 21:30:00,45.0,32.8,30.12,NE,44,4.0,5.0,62,0.00,,---,0.00,VWS V14.01,2013-03-13 04:30:00,
2013-03-12 21:35:00,44.7,32.5,30.12,NE,48,4.0,5.0,62,0.00,,---,0.00,VWS V14.01,2013-03-13 04:35:00,
2013-03-12 21:40:00,44.2,32.4,30.12,NE,44,6.0,6.0,63,0.00,,---,0.00,VWS V14.01,2013-03-13 04:40:00,
2013-03-12 21:45:00,44.0,32.2,30.12,NE,42,5.0,9.0,63,0.00,,---,0.00,VWS V14.01,2013-03-13 04:45:00,
2013-03-12 21:50:00,44.5,32.3,30.13,NNE,33,3.0,7.0,62,0.00,,---,0.00,VWS V14.01,2013-03-13 04:50:00,
2013-03-12 21:55:00,44.7,32.1,30.12,NNE,33,3.0,7.0,61,0.00,,---,0.00,VWS V14.01,2013-03-13 04:55:00,
2013-03-12 22:00:00,44.2,32.4,30.13,NNE,31,3.0,7.0,63,0.00,,---,0.00,VWS V14.01,2013-03-13 05:00:00,
2013-03-12 22:05:00,43.7,32.0,30.13,NNE,32,1.0,3.0,63,0.00,,---,0.00,VWS V14.01,2013-03-13 05:05:00,
2013-03-12 22:10:00,43.8,31.6,30.14,NNE,28,1.0,3.0,62,0.00,,---,0.00,VWS V14.01,2013-03-13 05:10:00,
2013-03-12 22:15:00,44.5,31.5,30.14,NNE,28,1.0,3.0,60,0.00,,---,0.00,VWS V14.01,2013-03-13 05:15:00,
2013-03-12 22:19:00,44.5,30.7,30.14,NNE,28,0.0,1.0,58,0.00,,---,0.00,VWS V14.01,2013-03-13 05:19:00,
2013-03-12 22:24:00,43.8,30.4,30.14,NNE,28,0.0,1.0,59,0.00,,---,0.00,VWS V14.01,2013-03-13 05:24:00,
2013-03-12 22:29:00,43.1,30.2,30.14,NNE,28,0.0,1.0,60,0.00,,---,0.00,VWS V14.01,2013-03-13 05:29:00,
2013-03-12 22:30:00,43.0,30.1,30.14,NNE,28,0.0,1.0,60,0.00,,---,0.00,VWS V14.01,2013-03-13 05:30:00,
2013-03-12 22:34:00,42.4,29.9,30.14,NNE,28,0.0,0.0,61,0.00,,---,0.00,VWS V14.01,2013-03-13 05:34:00,
2013-03-12 22:39:00,42.0,30.3,30.14,NNE,28,0.0,0.0,63,0.00,,---,0.00,VWS V14.01,2013-03-13 05:39:00,
2013-03-12 22:44:00,42.1,30.0,30.14,NNE,28,0.0,0.0,62,0.00,,---,0.00,VWS V14.01,2013-03-13 05:44:00,
2013-03-12 22:45:00,42.2,30.1,30.14,NNE,28,0.0,0.0,62,0.00,,---,0.00,VWS V14.01,2013-03-13 05:45:00,
2013-03-12 22:49:00,43.4,30.9,30.14,NNE,33,3.0,3.0,61,0.00,,---,0.00,VWS V14.01,2013-03-13 05:49:00,
2013-03-12 22:54:00,43.0,30.9,30.14,NE,34,3.0,4.0,62,0.00,,---,0.00,VWS V14.01,2013-03-13 05:54:00,
2013-03-12 22:59:00,43.1,31.0,30.14,NE,41,4.0,5.0,62,0.00,,---,0.00,VWS V14.01,2013-03-13 05:59:00,
2013-03-12 23:00:00,43.1,31.0,30.14,NE,41,4.0,5.0,62,0.00,,---,0.00,VWS V14.01,2013-03-13 06:00:00,
2013-03-12 23:04:00,42.2,30.9,30.14,NE,42,4.0,5.0,64,0.00,,---,0.00,VWS V14.01,2013-03-13 06:04:00,
2013-03-12 23:09:00,41.7,30.8,30.13,NE,52,7.0,8.0,65,0.00,,---,0.00,VWS V14.01,2013-03-13 06:09:00,
2013-03-12 23:14:00,42.0,30.7,30.14,NE,40,5.0,10.0,64,0.00,,---,0.00,VWS V14.01,2013-03-13 06:14:00,
2013-03-12 23:15:00,42.1,30.8,30.14,NNE,33,4.0,10.0,64,0.00,,---,0.00,VWS V14.01,2013-03-13 06:15:00,
2013-03-12 23:19:00,42.6,30.5,30.14,NE,37,3.0,7.0,62,0.00,,---,0.00,VWS V14.01,2013-03-13 06:19:00,
2013-03-12 23:24:00,43.2,30.7,30.14,NNE,25,6.0,7.0,61,0.00,,---,0.00,VWS V14.01,2013-03-13 06:24:00,
2013-03-12 23:29:00,43.4,30.9,30.13,NNE,28,4.0,7.0,61,0.00,,---,0.00,VWS V14.01,2013-03-13 06:29:00,
2013-03-12 23:30:00,43.4,30.9,30.13,NNE,29,4.0,7.0,61,0.00,,---,0.00,VWS V14.01,2013-03-13 06:30:00,
2013-03-12 23:34:00,43.1,30.6,30.13,NNE,17,4.0,7.0,61,0.00,,---,0.00,VWS V14.01,2013-03-13 06:34:00,
2013-03-12 23:39:00,42.8,30.7,30.13,NNE,29,3.0,7.0,62,0.00,,---,0.00,VWS V14.01,2013-03-13 06:39:00,
2013-03-12 23:44:00,42.7,30.6,30.13,NNE,19,6.0,7.0,62,0.00,,---,0.00,VWS V14.01,2013-03-13 06:44:00,
2013-03-12 23:45:00,42.7,30.6,30.13,NNE,22,4.0,7.0,62,0.00,,---,0.00,VWS V14.01,2013-03-13 06:45:00,
2013-03-12 23:49:00,42.9,30.4,30.13,NNE,13,2.0,5.0,61,0.00,,---,0.00,VWS V14.01,2013-03-13 06:49:00,
2013-03-12 23:54:00,42.2,30.5,30.13,NNE,13,2.0,5.0,63,0.00,,---,0.00,VWS V14.01,2013-03-13 06:54:00,
2013-03-12 23:59:00,41.0,30.1,30.13,NNE,13,0.0,5.0,65,0.00,,---,0.00,VWS V14.01,2013-03-13 06:59:00,